Albany, NY

10:01 PM EST on November 16, 2019 (GMT -0500)
Albany International

Weather History for KALB - September, 2019

Change the Weather History Date:

Friday, September 13, 2019

  Actual Average Record
Temperature  
Mean Temperature 59 °F 63 °F  
Max Temperature 72 °F 73 °F 92 °F (1948)
Min Temperature 45 °F 53 °F 37 °F (1954)
Degree Days  
Heating Degree Days 6 4  
Month to date heating degree days 27 31  
Since 1 July heating degree days 29 54  
Cooling Degree Days 0 2  
Month to date cooling degree days 23 35  
Year to date cooling degree days 746 578  
Growing Degree Days 8 (Base 50)    
Moisture  
Dew Point 47 °F    
Average Humidity 65    
Maximum Humidity 89    
Minimum Humidity 41    
Precipitation  
Precipitation 0.00 in 0.10 in 2.12 in (1937)
Month to date precipitation 1.78 1.32  
Year to date precipitation 30.76 27.47  
Sea Level Pressure  
Sea Level Pressure 30.42 in    
Wind  
Wind Speed 7 mph (SSE)    
Max Wind Speed 22 mph    
Max Gust Speed 32 mph    
Visibility 10 miles    
Events Fog    
T = Trace of Precipitation, MM = Missing Value Source: NWS Daily Summary

Daily Weather History Graph

Daily Weather History Graph

Search for Another Location

Airport or City:

Astronomy

Sep. 13, 2019 Rise Set
Actual Time 6:32 AM EDT 7:09 PM EDT
Civil Twilight 6:04 AM EDT 7:37 PM EDT
Nautical Twilight 5:30 AM EDT 8:11 PM EDT
Astronomical Twilight 4:55 AM EDT 8:45 PM EDT
Moon 7:22 PM EDT (9/13) 5:44 AM EDT (9/13)
Length of Visible Light 13h 33m
Length of Day
12h 36m
Full, 100% of the Moon is Illuminated
Sep 13
Full
Sep 14
Full
Sep 21
Last Quarter
Sep 28
New
Oct 5
First Quarter

Hourly Weather History & Observations

Time (EDT) Temp. Dew Point Humidity Pressure Visibility Wind Dir Wind Speed Gust Speed Precip Events Conditions
12:51 AM 52.0 °F 46.9 °F 83% 30.37 in 10.0 mi North 3.5 mph - N/A   Partly Cloudy
1:51 AM 50.0 °F 46.0 °F 86% 30.38 in 10.0 mi North 4.6 mph - N/A   Partly Cloudy
2:51 AM 48.9 °F 45.0 °F 86% 30.38 in 10.0 mi North 3.5 mph - N/A   Clear
3:51 AM 48.0 °F 44.1 °F 86% 30.40 in 10.0 mi NNW 3.5 mph - N/A   Clear
4:51 AM 48.0 °F 44.1 °F 86% 30.41 in 10.0 mi NNW 3.5 mph - N/A   Partly Cloudy
5:51 AM 48.0 °F 44.1 °F 86% 30.43 in 10.0 mi Calm Calm - N/A Fog Partly Cloudy
6:51 AM 45.0 °F 41.0 °F 86% 30.45 in 10.0 mi Calm Calm - N/A Fog Scattered Clouds
7:51 AM 51.1 °F 46.0 °F 83% 30.48 in 10.0 mi Calm Calm - N/A Fog Partly Cloudy
8:51 AM 55.0 °F 48.0 °F 77% 30.51 in 10.0 mi Calm Calm - N/A Fog Scattered Clouds
9:51 AM 59.0 °F 48.9 °F 69% 30.51 in 10.0 mi Calm Calm - N/A   Scattered Clouds
10:51 AM 64.9 °F 50.0 °F 58% 30.50 in 10.0 mi Calm Calm - N/A   Partly Cloudy
11:51 AM 66.9 °F 48.0 °F 51% 30.48 in 10.0 mi South 6.9 mph - N/A   Scattered Clouds
12:51 PM 69.1 °F 46.9 °F 45% 30.47 in 10.0 mi South 10.4 mph - N/A   Scattered Clouds
1:51 PM 70.0 °F 46.9 °F 44% 30.45 in 10.0 mi SSE 12.7 mph 19.6 mph N/A   Scattered Clouds
2:51 PM 71.1 °F 46.0 °F 41% 30.43 in 10.0 mi SSE 11.5 mph - N/A   Scattered Clouds
3:51 PM 70.0 °F 46.9 °F 44% 30.42 in 10.0 mi SSE 12.7 mph - N/A   Scattered Clouds
4:51 PM 71.1 °F 46.0 °F 41% 30.42 in 10.0 mi SSE 12.7 mph 20.7 mph N/A   Scattered Clouds
5:51 PM 69.1 °F 46.0 °F 44% 30.42 in 10.0 mi South 15.0 mph 24.2 mph N/A   Scattered Clouds
6:51 PM 66.0 °F 46.9 °F 50% 30.40 in 10.0 mi SE 8.1 mph - N/A   Scattered Clouds
7:51 PM 64.0 °F 46.9 °F 54% 30.38 in 10.0 mi SE 8.1 mph - N/A   Scattered Clouds
8:51 PM 64.0 °F 48.0 °F 56% 30.39 in 10.0 mi SSE 10.4 mph 17.3 mph N/A   Mostly Cloudy
9:51 PM 63.0 °F 46.9 °F 56% 30.38 in 10.0 mi South 11.5 mph 23.0 mph N/A   Mostly Cloudy
10:51 PM 62.1 °F 46.9 °F 58% 30.36 in 10.0 mi South 10.4 mph 21.9 mph N/A   Mostly Cloudy
11:51 PM 62.1 °F 48.0 °F 60% 30.35 in 10.0 mi South 15.0 mph 25.3 mph N/A   Mostly Cloudy